Total_Precipitation_Accumulation
1.97 2.35 3.28 4.17 4.66 4.00 3.29 2.77 2.44 2.44 2.05 1.56 1.16 1.22 1.64 2.03 2.51 3.09 3.22 2.89 2.17 1.92 2.18 2.98 3.65 3.43 3.20 3.12 3.06 3.24 3.29 3.09 2.92 2.84 2.81 2.43 2.29 2.26 2.15 2.04 2.02 1.95 1.92 1.88 1.96 2.06 2.07 2.22 2.20
1.70 2.76 3.89 4.69 4.36 3.36 3.01 2.68 2.62 2.32 1.68 1.28 0.98 1.03 1.26 1.23 1.10 1.94 3.27 3.19 2.12 1.79 1.88 2.33 3.31 3.26 3.14 3.28 3.21 3.21 3.26 3.23 3.07 2.90 2.62 2.32 2.33 2.39 2.40 2.40 2.31 2.15 2.08 2.15 2.17 2.16 2.09 2.31 2.45
1.86 3.17 4.02 4.37 3.27 2.91 3.02 2.80 2.58 1.89 1.30 1.14 1.04 0.90 1.12 1.49 1.48 2.03 2.95 2.43 1.74 1.69 1.84 2.50 3.17 3.02 2.91 2.98 3.12 3.23 3.36 3.37 3.29 2.97 2.49 2.28 2.26 2.32 2.39 2.47 2.40 2.26 2.14 2.15 2.18 2.07 2.00 2.22 2.49
2.22 3.36 3.60 3.29 2.75 2.36 2.43 2.61 2.24 1.83 1.45 1.01 1.01 1.01 1.00 1.59 1.84 1.92 1.97 1.79 1.54 1.62 1.72 2.23 2.92 2.87 2.75 2.81 3.20 3.16 3.10 3.09 3.04 2.76 2.47 2.28 2.32 2.24 2.35 2.39 2.29 2.17 1.98 1.92 1.95 1.93 1.86 2.00 2.36
2.86 3.55 3.46 2.88 2.50 2.33 2.22 2.15 1.98 2.01 1.86 1.33 1.05 1.18 1.48 2.01 2.11 2.00 1.80 1.67 1.54 1.60 1.53 1.83 2.48 2.61 2.68 2.84 3.09 3.02 2.88 2.83 2.65 2.47 2.33 2.23 2.27 2.26 2.23 2.08 1.88 1.84 1.81 1.79 1.91 1.91 1.76 1.87 2.20
3.36 3.38 3.42 3.04 2.58 2.41 2.32 2.03 1.80 1.82 1.69 1.36 1.14 1.38 2.01 2.63 2.59 2.47 1.97 1.87 1.80 1.55 1.44 1.64 2.15 2.35 2.37 2.50 3.01 3.21 2.94 2.90 2.62 2.34 2.25 2.23 2.18 2.12 2.00 1.80 1.70 1.72 1.81 1.85 1.81 1.77 1.70 1.80 2.01
3.42 3.30 3.15 2.71 2.61 2.67 2.45 1.84 1.78 1.73 1.59 1.29 1.08 1.39 2.07 2.97 2.82 2.41 1.98 1.73 1.79 1.65 1.54 1.68 1.75 1.85 2.14 2.48 2.65 2.93 2.99 2.88 2.63 2.26 2.12 2.14 1.98 1.83 1.78 1.77 1.78 1.69 1.74 1.73 1.66 1.62 1.67 1.81 1.96
2.53 2.89 2.97 2.85 2.77 2.98 2.17 1.59 1.46 1.48 1.44 0.93 0.92 1.35 1.87 2.49 2.38 2.23 1.90 1.67 1.67 1.54 1.49 1.55 1.64 1.65 1.71 1.94 2.16 2.43 2.79 2.69 2.45 2.24 2.17 2.14 1.93 1.75 1.72 1.66 1.85 1.83 1.75 1.75 1.67 1.60 1.63 1.70 1.85
2.24 2.87 3.28 3.20 2.70 2.61 1.83 1.74 1.39 1.20 1.17 1.01 0.94 1.07 1.37 1.52 1.66 1.84 1.82 1.69 1.65 1.40 1.31 1.32 1.33 1.42 1.49 1.55 1.65 1.90 2.11 2.19 1.97 1.71 1.76 1.63 1.42 1.34 1.43 1.47 1.82 1.93 1.97 1.90 1.79 1.77 1.72 1.61 1.62
2.45 2.97 3.04 2.41 1.87 1.84 1.74 1.67 1.40 1.50 1.55 1.31 1.15 1.08 1.35 1.50 1.54 1.77 1.78 1.71 1.62 1.48 1.30 1.16 1.19 1.23 1.28 1.26 1.52 1.74 1.55 1.55 1.51 1.46 1.37 1.29 1.32 1.37 1.19 1.34 1.69 1.66 1.68 1.71 1.69 1.69 1.52 1.25 1.15
1.81 2.25 2.13 1.80 1.32 1.30 1.43 1.25 1.07 1.51 1.77 1.43 1.30 1.25 1.37 1.58 1.61 1.60 1.69 1.59 1.40 1.33 1.21 1.08 1.14 1.10 1.03 1.12 1.27 1.50 1.56 1.60 1.61 1.50 1.46 1.31 1.20 1.14 1.03 1.04 1.19 1.23 1.28 1.25 1.33 1.35 1.16 0.99 1.00
1.53 1.53 1.50 1.53 1.13 1.23 1.35 1.11 1.17 1.34 1.45 1.19 1.12 1.20 1.39 1.51 1.55 1.51 1.54 1.51 1.28 1.21 1.26 1.09 1.05 1.01 0.91 0.82 0.89 1.07 1.14 1.20 1.23 1.31 1.35 1.33 1.34 1.27 1.11 1.14 1.21 1.22 1.20 1.34 1.34 1.33 1.20 1.05 0.91
1.62 1.59 1.36 1.30 1.16 1.18 1.23 1.12 1.16 1.35 1.14 1.02 1.15 1.32 1.55 1.57 1.54 1.42 1.32 1.31 1.32 1.31 1.23 1.14 1.10 1.05 1.04 0.99 0.91 0.86 0.89 0.98 1.04 1.14 1.16 1.22 1.27 1.29 1.27 1.24 1.35 1.32 1.29 1.37 1.32 1.15 1.18 1.16 1.02
1.43 1.48 1.51 1.41 1.30 1.16 1.29 1.18 1.20 1.52 1.24 1.12 1.18 1.36 1.54 1.56 1.50 1.39 1.31 1.26 1.19 1.26 1.31 1.26 1.14 1.13 1.04 1.00 1.02 1.02 0.96 1.00 1.05 1.12 1.04 1.04 1.11 1.07 1.17 1.26 1.39 1.29 1.30 1.37 1.27 1.21 1.25 1.26 1.16
1.21 1.62 1.77 1.55 1.41 1.28 1.33 1.57 1.50 1.47 1.32 1.32 1.31 1.34 1.50 1.58 1.47 1.35 1.27 1.28 1.20 1.18 1.29 1.35 1.32 1.29 1.16 1.09 1.09 1.09 1.05 0.98 1.02 1.08 0.96 0.93 1.03 1.05 1.15 1.24 1.31 1.30 1.29 1.29 1.34 1.37 1.30 1.20 1.14
1.46 1.86 2.20 1.67 1.45 1.28 1.52 1.96 1.67 1.53 1.48 1.46 1.32 1.31 1.35 1.39 1.36 1.35 1.26 1.22 1.21 1.19 1.19 1.25 1.24 1.28 1.31 1.26 1.19 1.16 1.10 1.07 1.11 1.11 1.06 0.99 0.98 1.08 1.32 1.36 1.25 1.31 1.41 1.47 1.55 1.53 1.45 1.34 1.31
1.92 2.00 1.94 1.67 1.35 1.23 1.44 1.68 1.57 1.51 1.50 1.47 1.23 1.11 1.14 1.20 1.22 1.25 1.20 1.20 1.18 1.17 1.16 1.19 1.20 1.39 1.45 1.42 1.42 1.36 1.26 1.29 1.31 1.30 1.26 1.19 1.10 1.22 1.49 1.59 1.43 1.38 1.58 1.58 1.45 1.50 1.57 1.56 1.61
1.63 1.42 1.36 1.48 1.28 1.20 1.34 1.31 1.36 1.36 1.31 1.23 1.11 1.03 1.06 1.05 1.04 1.02 1.00 1.11 1.08 1.04 1.05 1.13 1.21 1.32 1.47 1.66 1.72 1.70 1.62 1.58 1.68 1.72 1.67 1.51 1.44 1.46 1.67 1.86 1.78 1.67 1.81 1.84 1.70 1.82 1.93 1.87 1.94
1.06 1.12 1.18 1.18 1.02 1.14 1.21 1.17 1.26 1.21 1.17 1.02 0.93 0.90 0.92 0.89 0.90 0.89 0.91 1.00 0.98 0.87 0.83 0.94 1.15 1.33 1.49 1.65 1.83 2.01 2.13 2.17 2.10 2.03 2.05 1.97 1.83 1.90 2.05 2.05 2.27 2.30 2.26 2.29 2.22 2.41 2.50 2.25 2.08
0.99 1.10 1.16 1.08 0.91 1.01 1.08 1.12 1.20 1.12 1.02 0.87 0.80 0.77 0.75 0.73 0.77 0.80 0.77 0.78 0.79 0.79 0.80 0.88 1.06 1.34 1.54 1.73 1.95 2.15 2.51 2.64 2.57 2.54 2.39 2.28 2.20 2.26 2.17 2.29 2.53 2.54 2.62 2.69 2.55 2.74 2.91 2.63 2.32
0.99 0.97 1.01 1.03 1.06 1.05 1.05 1.25 1.29 1.17 0.99 0.83 0.71 0.66 0.64 0.59 0.64 0.68 0.66 0.64 0.63 0.65 0.70 0.80 0.93 1.16 1.49 1.83 2.10 2.33 2.59 2.83 2.89 2.73 2.64 2.54 2.56 2.62 2.56 2.54 2.69 2.71 2.77 2.93 2.94 2.92 3.11 3.10 2.78
1.09 0.72 0.69 0.79 1.06 1.33 1.09 1.49 1.25 1.09 0.98 0.80 0.73 0.69 0.65 0.63 0.64 0.64 0.62 0.64 0.62 0.65 0.73 0.84 0.94 1.08 1.29 1.57 1.98 2.36 2.63 2.95 2.95 2.80 2.76 2.75 2.74 2.74 2.70 2.72 2.83 2.86 2.84 2.90 2.91 2.89 3.23 3.52 3.36
0.80 0.56 0.61 0.76 0.88 0.97 0.83 1.11 1.13 0.92 1.00 0.90 0.80 0.77 0.72 0.65 0.66 0.64 0.64 0.65 0.68 0.71 0.77 0.89 1.00 1.15 1.31 1.56 1.92 2.31 2.56 2.80 2.97 2.92 2.76 2.66 2.67 2.54 2.42 2.54 2.74 2.79 2.81 2.82 2.95 3.03 3.31 3.40 3.37
0.60 0.65 0.71 0.76 0.88 1.05 0.65 0.84 1.07 0.97 0.91 0.89 0.84 0.83 0.75 0.61 0.65 0.69 0.74 0.76 0.74 0.79 0.89 1.00 1.14 1.35 1.49 1.60 1.73 1.90 2.13 2.49 2.65 2.76 2.75 2.71 2.68 2.48 2.29 2.34 2.45 2.57 2.68 2.67 2.72 2.88 3.04 3.28 3.43
0.63 0.96 1.32 1.30 1.26 1.06 0.53 0.73 0.98 0.80 0.69 0.70 0.70 0.72 0.73 0.70 0.74 0.81 0.90 0.91 0.89 0.90 1.05 1.17 1.28 1.37 1.43 1.41 1.45 1.59 1.79 2.07 2.23 2.33 2.44 2.47 2.50 2.45 2.40 2.29 2.31 2.37 2.43 2.59 2.82 2.84 2.89 3.05 3.24
0.60 0.81 1.32 1.42 1.21 0.97 0.74 0.98 1.03 0.73 0.60 0.59 0.60 0.61 0.67 0.77 0.86 0.99 1.11 1.17 1.11 1.10 1.14 1.16 1.25 1.24 1.25 1.30 1.36 1.44 1.59 1.78 1.88 1.97 2.08 2.13 2.05 2.00 1.99 2.05 2.13 2.24 2.31 2.41 2.61 2.74 2.77 2.82 2.85
0.55 0.52 0.57 0.85 0.82 0.94 0.92 1.02 0.98 0.69 0.57 0.57 0.62 0.64 0.69 0.84 0.99 1.17 1.35 1.40 1.30 1.23 1.20 1.23 1.32 1.29 1.21 1.26 1.40 1.48 1.54 1.57 1.59 1.66 1.61 1.63 1.64 1.61 1.62 1.66 1.81 1.99 2.12 2.18 2.30 2.49 2.50 2.61 2.64
0.37 0.43 0.61 0.98 1.25 1.29 1.06 1.08 1.15 0.86 0.66 0.63 0.72 0.85 0.95 1.10 1.21 1.37 1.48 1.47 1.42 1.46 1.43 1.29 1.28 1.33 1.28 1.41 1.48 1.46 1.46 1.45 1.48 1.50 1.52 1.49 1.54 1.58 1.61 1.61 1.62 1.73 1.81 1.93 2.10 2.22 2.30 2.39 2.39
0.35 0.44 0.66 0.97 1.05 1.40 1.58 1.48 1.02 0.85 0.78 0.75 0.82 1.11 1.21 1.29 1.38 1.45 1.53 1.51 1.42 1.40 1.39 1.37 1.33 1.31 1.34 1.40 1.46 1.39 1.40 1.45 1.45 1.43 1.47 1.53 1.57 1.64 1.63 1.64 1.65 1.65 1.72 1.78 1.88 1.99 2.13 2.14 2.17
0.45 0.59 0.81 1.30 1.29 1.18 1.60 1.66 1.03 0.86 0.85 0.86 0.88 0.95 1.05 1.26 1.36 1.40 1.52 1.49 1.38 1.35 1.24 1.28 1.37 1.37 1.45 1.48 1.42 1.37 1.48 1.54 1.62 1.61 1.54 1.54 1.53 1.49 1.52 1.61 1.55 1.53 1.58 1.66 1.78 1.87 1.90 1.95 1.90